[[{"header":{"parameterUnit":"m.s-1","parameterCategory":1,"la1":30.2991,"la2":30.254,"lo1":-89.0895,"lo2":-89.0444,"dy":0.0017,"dx":0.0017,"nx":28,"ny":28,"refTime":"2025-03-23T03:00:00:Z","depth":0,"parameterNumber":2,"parameterNumberName":"U-component_of_WINDS"},"data":[0,0,0,0,0,0,0,0,0,0,0,0,0,0,0,0,0,0,0,0,0,0,0,0,0,0,0,0,0,0,0,0,0,0,0,0,0,0,0,0,0,0,0,0,0,0,0,0,0,0,0,0,0,0,0,0,0,0,0.8304,0.8305,0,0.8409,0.8411,0.8412,0.8454,0.8454,0.8454,0.8453,0.8561,0.8564,0.8567,0,0,0,0,0,0,0,0,0,0,0,0,0,0.8138,0.8141,0.8304,0.8305,0.8307,0.8409,0.8411,0.8412,0.8454,0.8454,0.8453,0.8453,0.856,0.8564,0.8567,0,0,0,0,0,0,0,0,0,0,0,0,0,0.8223,0.8142,0.8304,0.834,0.8344,0.8409,0.8411,0.8413,0.8454,0.8454,0.8453,0.8453,0.8559,0.8563,0.8568,0.8604,0,0,0.8582,0.8584,0,0,0,0,0,0,0,0,0.8218,0.8229,0.8333,0.8338,0.8343,0.8418,0.8392,0.8477,0.8454,0.8412,0.8453,0.8453,0.8514,0.8522,0.8543,0.8609,0.8614,0.8582,0.8585,0.8587,0.8589,0,0,0,0,0,0,0,0.8212,0.8225,0.8346,0.8335,0.834,0.835,0.8362,0.8408,0.8464,0.8416,0.8419,0.8431,0.8516,0.8538,0.8546,0.8616,0.8582,0.8586,0.8589,0.8591,0.8716,0.8717,0,0,0,0,0,0,0.8201,0.822,0.8342,0.8349,0.8278,0.8354,0.8367,0.8394,0.8464,0.8474,0.8431,0.8433,0.853,0.854,0.8549,0.8596,0.8587,0.8592,0.8594,0.8716,0.8716,0.8717,0,0,0,0,0,0,0.8197,0.8211,0.8338,0.8285,0.8302,0.8357,0.8388,0.8397,0.8419,0.8475,0.8485,0.8444,0.853,0.8543,0.859,0.86,0.8594,0.8598,0.8715,0.8716,0.8717,0.869,0,0,0,0,0,0,0.8192,0.821,0.8224,0.8285,0.8305,0.8377,0.8388,0.8399,0.8427,0.8429,0.8489,0.8499,0.8531,0.8583,0.8595,0.8607,0.8602,0.8714,0.8715,0.8716,0.869,0.869,0.8689,0,0,0,0,0,0.8186,0.8213,0.8225,0.8239,0.8325,0.8378,0.8389,0.8425,0.8427,0.8442,0.8478,0.8497,0.8597,0.8587,0.8601,0.8615,0.8714,0.8715,0.8716,0.869,0.869,0.8689,0,0,0,0,0,0,0.8152,0.8221,0.8236,0.8283,0.8324,0.8385,0.8405,0.8424,0.8465,0.8466,0.851,0.8523,0.8566,0.8595,0.8583,0.8653,0.8657,0.8661,0.8632,0.8632,0.8632,0.8624,0.8605,0,0,0,0,0,0.815,0.8187,0.8246,0.8282,0.8302,0.835,0.8374,0.8399,0.8443,0.8461,0.85,0.8542,0.8583,0.861,0.865,0.8694,0.8708,0.871,0.871,0.8709,0.8712,0.8737,0.8738,0.8721,0.8721,0.8721,0,0,0.8146,0.8189,0.821,0.8277,0.8311,0.8349,0.8364,0.8404,0.8432,0.8467,0.8514,0.8544,0.8594,0.8639,0.8661,0.8665,0.872,0.8711,0.871,0.8713,0.8738,0.874,0.8741,0.8722,0.8721,0.8721,0,0,0.8158,0.8195,0.8228,0.8263,0.8315,0.8346,0.8354,0.8412,0.8433,0.8481,0.8508,0.8541,0.8611,0.8645,0.8672,0.8695,0.8714,0.8708,0.8706,0.8729,0.873,0.8732,0.874,0.8742,0.871,0.871,0.871,0,0.8147,0.8205,0.8243,0.8281,0.8309,0.8342,0.8376,0.8408,0.847,0.8489,0.8492,0.8579,0.8615,0.8669,0.8674,0.8695,0.8705,0.8701,0.8727,0.8729,0.8731,0.8739,0.8742,0.8709,0.8709,0.8709,0.8709,0,0.8188,0.8228,0.8249,0.8308,0.8339,0.8374,0.8417,0.8444,0.8465,0.8496,0.8543,0.8587,0.8637,0.8652,0.8673,0.8708,0.8708,0.8719,0.8724,0.8731,0.8739,0.8742,0.8707,0.8708,0.8708,0.8708,0,0,0.8182,0.8262,0.8269,0.8296,0.8355,0.8387,0.8423,0.8472,0.8493,0.8535,0.8567,0.8624,0.8634,0.8664,0.8689,0.871,0.8725,0.8718,0.8719,0.8717,0.8765,0.8757,0.876,0.8737,0.8738,0.8739,0.8761,0,0.8202,0.827,0.8305,0.8357,0.8394,0.8425,0.8457,0.8496,0.8526,0.8561,0.8594,0.8634,0.8643,0.8661,0.8683,0.8718,0.8735,0.8717,0.8767,0.8768,0.8753,0.8765,0.8756,0.8775,0.8764,0.8765,0.8765,0,0.8235,0.8276,0.8332,0.8386,0.8403,0.8431,0.8478,0.8511,0.8556,0.8576,0.8609,0.8634,0.8673,0.8675,0.8729,0.8716,0.8738,0.8759,0.876,0.8766,0.8767,0.8771,0.8782,0.8785,0.8771,0.8771,0.877,0,0.8224,0.8294,0.8336,0.8358,0.8423,0.8442,0.8469,0.8514,0.8541,0.8582,0.8599,0.8644,0.8669,0.8703,0.8739,0.8737,0.8789,0.8794,0.8807,0.8806,0.8817,0.8815,0.8832,0.8831,0.8831,0.8831,0.8831,0,0.8243,0.8276,0.8332,0.8358,0.8395,0.8435,0.8471,0.8501,0.854,0.8572,0.8602,0.8631,0.8677,0.8712,0.874,0.8781,0.8792,0.8809,0.8816,0.8806,0.8804,0.8821,0.8821,0.8832,0.8831,0.8831,0.8831,0,0.8238,0.8277,0.8325,0.8382,0.8397,0.8422,0.847,0.8496,0.8527,0.8567,0.8579,0.8627,0.8669,0.8708,0.8765,0.8784,0.8825,0.8834,0.8809,0.8813,0.8823,0.8822,0.8851,0.8857,0.8852,0.8852,0.8852,0,0.8247,0.8273,0.8332,0.8356,0.8383,0.842,0.8448,0.8487,0.8514,0.8567,0.8587,0.8631,0.8669,0.8735,0.8775,0.8818,0.8829,0.8836,0.8835,0.8824,0.8829,0.8826,0.8829,0.8835,0.8835,0.8835,0.8835,0,0.8259,0.8276,0.8315,0.836,0.8391,0.8428,0.8467,0.8484,0.8531,0.8559,0.8603,0.8632,0.869,0.8733,0.8781,0.8809,0.883,0.8835,0.884,0.883,0.8815,0.8823,0.8807,0.8834,0.8834,0.8834,0.8834,0.8834,0.8261,0.8285,0.833,0.8372,0.8405,0.8439,0.8466,0.85,0.8537,0.8587,0.8608,0.8652,0.8696,0.8762,0.879,0.8825,0.8829,0.8837,0.8838,0.884,0.8838,0.8809,0.8833,0.8834,0.8834,0.8834,0.8834,0,0.8274,0.8304,0.8342,0.8394,0.8427,0.8443,0.8486,0.8512,0.855,0.8589,0.8625,0.8675,0.8717,0.876,0.8805,0.8824,0.8835,0.8835,0.8834,0.884,0.8831,0.8822,0.8825,0.8825,0.8825,0.8825,0.8825,0.8825,0.8284,0.8326,0.8349,0.8407,0.8437,0.8481,0.8504,0.8536,0.8567,0.8621,0.8656,0.8684,0.8724,0.8772,0.8811,0.8823,0.8838,0.8835,0.8849,0.884,0.884,0.8841,0.8832,0.8838,0.8838,0.8855,0.8855,0.8855]},{"header":{"parameterUnit":"m.s-1","parameterCategory":1,"la1":30.2991,"la2":30.254,"lo1":-89.0895,"lo2":-89.0444,"dy":0.0017,"dx":0.0017,"nx":28,"ny":28,"refTime":"2025-03-23T03:00:00:Z","depth":0,"parameterNumber":3,"parameterNumberName":"V-component_of_WINDS"},"data":[0,0,0,0,0,0,0,0,0,0,0,0,0,0,0,0,0,0,0,0,0,0,0,0,0,0,0,0,0,0,0,0,0,0,0,0,0,0,0,0,0,0,0,0,0,0,0,0,0,0,0,0,0,0,0,0,0,0,4.4419,4.4419,0,4.4443,4.4444,4.4444,4.4383,4.4381,4.4379,4.4378,4.44,4.4402,4.4404,0,0,0,0,0,0,0,0,0,0,0,0,0,4.4315,4.4317,4.4419,4.4419,4.4419,4.4443,4.4444,4.4444,4.4384,4.4381,4.4379,4.4377,4.4399,4.4402,4.4404,0,0,0,0,0,0,0,0,0,0,0,0,0,4.4352,4.4318,4.4419,4.4392,4.439,4.4443,4.4444,4.4444,4.4384,4.4381,4.4378,4.4376,4.4398,4.4401,4.4405,4.4484,0,0,4.4416,4.4417,0,0,0,0,0,0,0,0,4.435,4.4356,4.4396,4.4394,4.4392,4.4407,4.4415,4.4457,4.4385,4.4386,4.4378,4.4374,4.4404,4.4407,4.4418,4.4485,4.4486,4.4416,4.4418,4.442,4.4421,0,0,0,0,0,0,0,4.4347,4.4354,4.4428,4.4396,4.4394,4.4378,4.438,4.4423,4.4411,4.4386,4.4382,4.4386,4.4403,4.4415,4.4418,4.4486,4.4416,4.4419,4.4421,4.4423,4.4618,4.4621,0,0,0,0,0,0,4.4349,4.4353,4.4427,4.4429,4.4363,4.4382,4.4384,4.4405,4.441,4.4408,4.4388,4.4383,4.441,4.4414,4.4419,4.4511,4.442,4.4423,4.4425,4.4615,4.4619,4.4622,0,0,0,0,0,0,4.4347,4.4356,4.4426,4.439,4.4397,4.4387,4.4411,4.4407,4.4419,4.4412,4.4409,4.4403,4.4408,4.4414,4.4468,4.4511,4.4424,4.4428,4.4612,4.4616,4.4621,4.4697,0,0,0,0,0,0,4.4344,4.4356,4.4387,4.4391,4.44,4.4477,4.4413,4.441,4.4426,4.4419,4.4425,4.4423,4.4406,4.4463,4.4472,4.4514,4.443,4.4608,4.4614,4.4619,4.469,4.4703,4.4714,0,0,0,0,0,4.4341,4.4406,4.4388,4.4398,4.4438,4.448,4.4485,4.4465,4.443,4.446,4.4455,4.4423,4.4505,4.4469,4.4478,4.4522,4.4605,4.4612,4.4619,4.4685,4.4701,4.4714,0,0,0,0,0,0,4.4406,4.4406,4.4387,4.4456,4.4469,4.4469,4.4507,4.4482,4.4504,4.4496,4.447,4.4472,4.4531,4.4532,4.4492,4.4599,4.4549,4.4558,4.4596,4.4611,4.4623,4.4621,4.4433,0,0,0,0,0,4.4429,4.4464,4.4462,4.4523,4.453,4.4518,4.4535,4.4519,4.453,4.4535,4.4534,4.4545,4.4573,4.4592,4.4618,4.469,4.469,4.4725,4.4737,4.4747,4.4755,4.4793,4.4808,4.4645,4.4645,4.4645,0,0,4.4475,4.448,4.4504,4.4536,4.4544,4.4579,4.4523,4.4563,4.4588,4.454,4.4592,4.4592,4.4602,4.4666,4.4694,4.4669,4.48,4.4756,4.4764,4.4766,4.4801,4.4817,4.4831,4.465,4.4649,4.4648,0,0,4.4579,4.4587,4.4638,4.4647,4.466,4.4651,4.4664,4.4669,4.4667,4.4719,4.4684,4.4713,4.4762,4.4771,4.4782,4.4889,4.486,4.4898,4.4961,4.4998,4.5011,4.5022,4.506,4.5073,4.4906,4.4907,4.4907,0,4.4635,4.4689,4.4667,4.471,4.4725,4.4685,4.4736,4.4745,4.4766,4.4776,4.4748,4.4809,4.4813,4.4878,4.4904,4.4915,4.4927,4.4897,4.5011,4.5022,4.5032,4.5068,4.5082,4.4911,4.491,4.491,4.491,0,4.4756,4.4794,4.4834,4.4856,4.4875,4.4922,4.4907,4.4929,4.4911,4.4905,4.4957,4.4961,4.4987,4.5001,4.4983,4.5064,4.5047,4.5016,4.4965,4.5053,4.5085,4.5099,4.4917,4.4916,4.4914,4.4913,0,0,4.4901,4.4911,4.4926,4.4935,4.4947,4.4974,4.5019,4.5045,4.5064,4.5079,4.5115,4.5158,4.5128,4.5141,4.5124,4.5157,4.524,4.5121,4.512,4.5142,4.5328,4.5351,4.5367,4.5221,4.5224,4.5226,4.5327,0,4.5003,4.5081,4.5063,4.5139,4.5173,4.5135,4.5173,4.5184,4.518,4.5206,4.5201,4.5231,4.5191,4.5198,4.5229,4.5224,4.5277,4.5216,4.5253,4.5255,4.5251,4.5385,4.5409,4.5504,4.5339,4.5342,4.5343,0,4.5132,4.5153,4.5233,4.5239,4.5252,4.5287,4.5309,4.5336,4.5347,4.5341,4.5356,4.5332,4.5375,4.5324,4.5382,4.5341,4.5355,4.5355,4.5358,4.536,4.5304,4.5389,4.5534,4.5548,4.5363,4.5362,4.536,0,4.5229,4.5277,4.5331,4.534,4.5348,4.5374,4.5378,4.5386,4.5403,4.5421,4.5432,4.5455,4.5468,4.5486,4.5469,4.5434,4.553,4.5478,4.5525,4.5526,4.5546,4.5545,4.5694,4.5557,4.5557,4.5556,4.5556,0,4.5344,4.5394,4.5375,4.5408,4.5463,4.5441,4.5496,4.5495,4.5503,4.5534,4.5502,4.5532,4.5509,4.5536,4.5523,4.5573,4.5579,4.5574,4.557,4.5577,4.5577,4.5585,4.5578,4.556,4.5559,4.5558,4.5558,0,4.5461,4.545,4.5506,4.551,4.5512,4.5552,4.5554,4.5584,4.5577,4.5617,4.5625,4.5615,4.5645,4.5631,4.5662,4.5654,4.5717,4.5705,4.5714,4.571,4.5758,4.5754,4.5918,4.5938,4.5788,4.5789,4.5791,0,4.5535,4.5572,4.558,4.5599,4.5606,4.5638,4.5655,4.5635,4.5654,4.5669,4.5697,4.5725,4.5747,4.5797,4.5792,4.5816,4.5803,4.5859,4.5806,4.5812,4.5803,4.58,4.5804,4.5869,4.5871,4.5872,4.5873,0,4.5666,4.5659,4.5686,4.5711,4.5732,4.575,4.5766,4.5783,4.5764,4.5786,4.5818,4.5835,4.5868,4.5896,4.5917,4.592,4.5893,4.589,4.5902,4.5909,4.5913,4.591,4.5742,4.5886,4.5885,4.5884,4.5883,4.5883,4.5763,4.5795,4.5805,4.5836,4.5845,4.5861,4.5889,4.5886,4.5913,4.5939,4.5925,4.5962,4.5971,4.5996,4.6003,4.6031,4.6008,4.6026,4.603,4.6035,4.6041,4.5909,4.6034,4.6034,4.6034,4.6033,4.6033,0,4.5893,4.5898,4.5926,4.5949,4.5973,4.5947,4.5962,4.5984,4.6017,4.6028,4.605,4.6086,4.6113,4.611,4.6134,4.6157,4.6146,4.6164,4.6162,4.6163,4.606,4.6047,4.6173,4.6173,4.6173,4.6173,4.6173,4.6173,4.5963,4.6015,4.6009,4.6065,4.6069,4.6106,4.6117,4.613,4.6139,4.6181,4.6204,4.6202,4.6207,4.6232,4.6255,4.6254,4.6264,4.6287,4.6281,4.6184,4.617,4.6157,4.6144,4.6289,4.629,4.6381,4.6382,4.6383]}]]